sat.trackr.live / text

‹ back to catalog

SES-7 (PROTOSTAR 2)

NORAD 34941 · 2009-027A

PAYLOAD ACTIVE UNKNOWN

§ Identity

Operator
Country
SES
Launch date
2009-05-16
Launch site
TYMSC
Launch vehicle
Mass (kg)
RCS (m²)
10.00

Purposes: comms

External: N2YO · Heavens-Above · Gunter

§ Orbital elements

Epoch: 2026-09-19T20:54:28.668960Z

Period
1,436.11 min
Inclination
0.0558°
Eccentricity
0.0000828
Mean motion
1.00270739 rev/d
Perigee alt
35,783.4 km
Apogee alt
35,790.4 km
Semi-major
42,165.0 km
B*
0.0000e+0
RAAN
77.1516°
Arg perigee
163.1578°
Mean anomaly
180.3552°
Rev number
6,357

§ Raw data

SES-7 (PROTOSTAR 2)1 34941U 09027A   26262.87116515 -.00000349  00000+0  00000+0 0  99962 34941   0.0558  77.1516 0000828 163.1578 180.3552  1.00270739 63571

JSON: /api/v1/satellites/34941 · /tle

For live sub-satellite position, see the globe view (requires WebGL).

§ Visibility from observer

Set your observer location to see the next 7 days of passes ≥ 10°. The values pass through the URL so the page stays shareable.

No JS? Fill the form by hand. The geolocation button needs JavaScript.